2023/05/08 00:00:00,55.6,10.4
2023/05/08 00:10:00,53.3,10.3
2023/05/08 00:20:00,54.1,10.6
2023/05/08 00:30:00,51.9,10.2
2023/05/08 00:40:00,49.1, 9.9
2023/05/08 00:50:00,44.6,10.0
2023/05/08 01:00:00,46.5, 9.8
2023/05/08 01:10:00,50.7,10.0
2023/05/08 01:20:00,49.1,10.0
2023/05/08 01:30:00,48.4, 9.7
2023/05/08 01:40:00,46.2, 9.7
2023/05/08 01:50:00,43.4, 9.8
2023/05/08 02:00:00,40.7, 9.7
2023/05/08 02:10:00,45.1, 9.7
2023/05/08 02:20:00,46.9, 9.9
2023/05/08 02:30:00,---, 9.5
2023/05/08 02:40:00,56.2, 9.8
2023/05/08 02:50:00,55.0, 9.7
2023/05/08 03:00:00,56.8, 9.7
2023/05/08 03:10:00,53.7, 9.7
2023/05/08 03:20:00,55.6, 9.9
2023/05/08 03:30:00,56.4, 9.9
2023/05/08 03:40:00,54.7,10.2
2023/05/08 03:50:00,41.3, 9.9
2023/05/08 04:00:00,40.3, 9.6
2023/05/08 04:10:00,40.8, 9.8
2023/05/08 04:20:00,40.9,10.1
2023/05/08 04:30:00,41.0, 9.9
2023/05/08 04:40:00,40.6, 9.7
2023/05/08 04:50:00,39.7, 9.6
2023/05/08 05:00:00,41.7, 9.6
2023/05/08 05:10:00,41.2, 9.4
2023/05/08 05:20:00,42.0, 9.5
2023/05/08 05:30:00,40.9, 9.6
2023/05/08 05:40:00,39.2, 9.6
2023/05/08 05:50:00,39.7, 9.7
2023/05/08 06:00:00,40.9, 9.6
2023/05/08 06:10:00,40.7, 9.9
2023/05/08 06:20:00,43.1,10.0
2023/05/08 06:30:00,39.9,10.2
2023/05/08 06:40:00,37.8,10.4
2023/05/08 06:50:00,40.8,10.8
2023/05/08 07:00:00,44.6,10.6
2023/05/08 07:10:00,47.6,10.3
2023/05/08 07:20:00,---,10.6
2023/05/08 07:30:00,55.8,10.7
2023/05/08 07:40:00,55.7,10.6
2023/05/08 07:50:00,54.3,10.9
2023/05/08 08:00:00,54.2,10.9
2023/05/08 08:10:00,54.9,10.6
2023/05/08 08:20:00,52.9,10.9
2023/05/08 08:30:00,48.5,11.1
2023/05/08 08:40:00,52.7,11.9
2023/05/08 08:50:00,48.2,12.0
2023/05/08 09:00:00,41.1,11.7
2023/05/08 09:10:00,43.3,11.0
2023/05/08 09:20:00,---,11.3
2023/05/08 09:30:00,50.0,11.6
2023/05/08 09:40:00,48.7,11.3
2023/05/08 09:50:00,46.5,11.6
2023/05/08 10:00:00,48.7,11.8
2023/05/08 10:10:00,46.8,11.5
2023/05/08 10:20:00,46.9,11.5
2023/05/08 10:30:00,50.3,12.0
2023/05/08 10:40:00,40.8,11.7
2023/05/08 10:50:00,44.3,12.2
2023/05/08 11:00:00,45.8,11.9
2023/05/08 11:10:00,45.6,11.7
2023/05/08 11:20:00,47.1,11.8
2023/05/08 11:30:00,43.8,12.8
2023/05/08 11:40:00,41.8,12.9
2023/05/08 11:50:00,45.1,12.8
2023/05/08 12:00:00,44.8,12.9
2023/05/08 12:10:00,44.7,14.0
2023/05/08 12:20:00,46.5,14.9
2023/05/08 12:30:00,---,16.0
2023/05/08 12:40:00,46.5,15.7
2023/05/08 12:50:00,44.3,16.8
2023/05/08 13:00:00,40.8,17.4
2023/05/08 13:10:00,39.6,18.0
2023/05/08 13:20:00,38.9,17.5
2023/05/08 13:30:00,41.6,16.5
2023/05/08 13:40:00,42.5,16.4
2023/05/08 13:50:00,39.5,17.2
2023/05/08 14:00:00,37.4,17.9
2023/05/08 14:10:00,41.3,19.8
2023/05/08 14:20:00,44.4,17.9
2023/05/08 14:30:00,---,19.0
2023/05/08 14:40:00,48.4,17.8
2023/05/08 14:50:00,49.4,18.4
2023/05/08 15:00:00,47.4,19.1
2023/05/08 15:10:00,51.0,19.1
2023/05/08 15:20:00,49.9,18.6
2023/05/08 15:30:00,50.4,19.5
2023/05/08 15:40:00,49.8,18.7
2023/05/08 15:50:00,41.5,18.4
2023/05/08 16:00:00,32.4,18.7
2023/05/08 16:10:00,26.8,18.2
2023/05/08 16:20:00,36.9,18.6
2023/05/08 16:30:00,33.0,17.9
2023/05/08 16:40:00,30.1,18.4
2023/05/08 16:50:00,25.7,18.1
2023/05/08 17:00:00,21.4,17.6
2023/05/08 17:10:00,31.5,17.6
2023/05/08 17:20:00,32.7,17.7
2023/05/08 17:30:00,44.2,16.4
2023/05/08 17:40:00,39.2,16.4
2023/05/08 17:50:00,34.8,16.5
2023/05/08 18:00:00,33.8,14.5
2023/05/08 18:10:00,40.4,13.1
2023/05/08 18:20:00,35.6,12.3
2023/05/08 18:30:00,32.0,12.0
2023/05/08 18:40:00,68.8,11.8
2023/05/08 18:50:00,60.1,11.3
2023/05/08 19:00:00,58.9,10.7
2023/05/08 19:10:00,41.4, 9.7
2023/05/08 19:20:00,44.6, 9.2
2023/05/08 19:30:00,47.1, 9.1
2023/05/08 19:40:00,48.6, 8.9
2023/05/08 19:50:00,50.6, 8.5
2023/05/08 20:00:00,31.3, 8.1
2023/05/08 20:10:00, 0.0, 8.1
2023/05/08 20:20:00, 0.0, 7.8
2023/05/08 20:30:00, 0.0, 7.8
2023/05/08 20:40:00, 0.0, 7.8
2023/05/08 20:50:00, 0.0, 7.5
2023/05/08 21:00:00, 0.1, 7.1
2023/05/08 21:10:00, 3.8, 7.3
2023/05/08 21:20:00, 0.0, 7.4
2023/05/08 21:30:00, 0.0, 7.2
2023/05/08 21:40:00, 0.0, 6.8
2023/05/08 21:50:00, 0.1, 7.0
2023/05/08 22:00:00, 0.2, 7.0
2023/05/08 22:10:00, 0.1, 6.8
2023/05/08 22:20:00, 0.0, 7.1
2023/05/08 22:30:00, 0.0, 7.2
2023/05/08 22:40:00, 0.0, 7.4
2023/05/08 22:50:00, 0.0, 7.1
2023/05/08 23:00:00, 0.0, 6.4
2023/05/08 23:10:00, 0.0, 6.7
2023/05/08 23:20:00, 0.0, 7.1
2023/05/08 23:30:00, 0.0, 6.7
2023/05/08 23:40:00, 0.0, 6.7
2023/05/08 23:50:00,19.6, 6.6
